Charleston, SC

11:26 PM EDT on July 24, 2017 (GMT -0400)
Charleston Air Force Base-International

Weather History for KCHS - August, 2014

Change the Weather History Date:

Saturday, August 16, 2014

  Actual Average Record
Temperature  
Mean Temperature 86 °F 81 °F  
Max Temperature 95 °F 90 °F 99 °F (1954)
Min Temperature 76 °F 73 °F 65 °F (1967)
Degree Days  
Heating Degree Days 0 0  
Month to date heating degree days 0 0  
Since 1 June heating degree days 0 1  
Since 1 July heating degree days 0 0  
Cooling Degree Days 21 16  
Month to date cooling degree days 288 265  
Year to date cooling degree days 1882 1577  
Since 1 June cooling degree days 1372 1215  
Growing Degree Days 35 (Base 50)    
Moisture  
Dew Point 73 °F    
Average Humidity 68    
Maximum Humidity 94    
Minimum Humidity 41    
Precipitation  
Precipitation 0.00 in 0.23 in 4.69 in (1974)
Month to date precipitation 6.74 3.48  
Year to date precipitation 34.99 31.97  
Sea Level Pressure  
Sea Level Pressure 30.00 in    
Wind  
Wind Speed 5 mph (SW)    
Max Wind Speed 14 mph    
Max Gust Speed 26 mph    
Visibility 10 miles    
Events      
T = Trace of Precipitation, MM = Missing Value Source: NWS Daily Summary

Daily Weather History Graph

Daily Weather History Graph

Search for Another Location

Airport or City:

Trip Planner

Search our weather history database for the weather conditions in past years. The results will help you decide how hot, cold, wet, or windy it might be!

Date:

Astronomy

Aug. 16, 2014 Rise Set
Actual Time 6:44 AM EDT 8:04 PM EDT
Civil Twilight 6:18 AM EDT 8:30 PM EDT
Nautical Twilight 5:47 AM EDT 9:01 PM EDT
Astronomical Twilight 5:14 AM EDT 9:33 PM EDT
Moon No Moon Rise 1:05 PM EDT (8/16)
Length of Visible Light 14h 12m
Length of Day
13h 20m
Waning Gibbous, 59% of the Moon is Illuminated
Aug 16
Waning Gibbous
Aug 17
Last Quarter
Aug 25
New
Sep 2
First Quarter
Sep 8
Full

Hourly Weather History & Observations

Time (EDT) Temp. Heat Index Dew Point Humidity Pressure Visibility Wind Dir Wind Speed Gust Speed Precip Events Conditions
12:56 AM 79.0 °F - 72.0 °F 79% 29.98 in 10.0 mi Calm Calm - N/A   Partly Cloudy
1:56 AM 77.0 °F - 73.0 °F 88% 29.97 in 10.0 mi Calm Calm - N/A   Partly Cloudy
2:56 AM 75.9 °F - 73.0 °F 91% 29.97 in 10.0 mi Calm Calm - N/A   Mostly Cloudy
3:56 AM 78.1 °F - 73.0 °F 84% 29.97 in 10.0 mi Calm Calm - N/A   Mostly Cloudy
4:56 AM 78.1 °F - 73.0 °F 84% 29.97 in 10.0 mi Calm Calm - N/A   Scattered Clouds
5:56 AM 77.0 °F - 73.0 °F 88% 29.98 in 10.0 mi Calm Calm - N/A   Mostly Cloudy
6:56 AM 78.1 °F - 73.0 °F 84% 30.00 in 10.0 mi Calm Calm - N/A   Scattered Clouds
7:56 AM 80.1 °F 85.1 °F 75.0 °F 85% 30.00 in 9.0 mi SSW 3.5 mph - N/A   Clear
8:56 AM 82.0 °F 88.6 °F 75.0 °F 79% 30.02 in 10.0 mi West 6.9 mph - N/A   Partly Cloudy
9:56 AM 84.9 °F 93.3 °F 75.0 °F 72% 30.03 in 10.0 mi West 6.9 mph - N/A   Partly Cloudy
10:56 AM 87.1 °F 95.4 °F 73.9 °F 65% 30.03 in 10.0 mi WSW 6.9 mph - N/A   Scattered Clouds
11:56 AM 89.1 °F 98.0 °F 73.9 °F 61% 30.03 in 10.0 mi Calm Calm - N/A   Scattered Clouds
12:56 PM 91.0 °F 98.2 °F 72.0 °F 53% 30.01 in 10.0 mi SW 6.9 mph - N/A   Scattered Clouds
1:56 PM 93.0 °F 99.0 °F 70.0 °F 47% 30.00 in 10.0 mi SW 6.9 mph - N/A   Scattered Clouds
2:56 PM 93.0 °F 97.4 °F 68.0 °F 44% 29.99 in 10.0 mi West 8.1 mph - N/A   Scattered Clouds
3:56 PM 93.0 °F 97.9 °F 69.1 °F 45% 29.98 in 10.0 mi West 8.1 mph - N/A   Scattered Clouds
4:56 PM 93.0 °F 95.9 °F 66.0 °F 41% 29.98 in 10.0 mi WSW 9.2 mph - N/A   Scattered Clouds
5:56 PM 91.9 °F 96.9 °F 69.1 °F 47% 29.99 in 10.0 mi SSW 8.1 mph - N/A   Mostly Cloudy
6:56 PM 88.0 °F 97.5 °F 75.0 °F 65% 30.00 in 10.0 mi South 8.1 mph - N/A   Mostly Cloudy
7:56 PM 84.0 °F 91.9 °F 75.0 °F 74% 30.00 in 10.0 mi SSW 9.2 mph - N/A   Mostly Cloudy
8:56 PM 82.9 °F 90.2 °F 75.0 °F 77% 30.01 in 10.0 mi SSW 8.1 mph - N/A   Scattered Clouds
9:56 PM 81.0 °F 86.7 °F 75.0 °F 82% 30.02 in 10.0 mi SW 6.9 mph - N/A   Partly Cloudy
10:56 PM 80.1 °F 84.5 °F 73.9 °F 81% 30.03 in 10.0 mi SSW 5.8 mph - N/A   Clear
11:56 PM 79.0 °F - 73.9 °F 84% 30.02 in 10.0 mi SSW 5.8 mph - N/A   Clear